sat.trackr.live / text

‹ back to catalog

STARLINK-2417

NORAD 48096 · 2021-027E

PAYLOAD ACTIVE UNKNOWN

§ Identity

Operator
Country
US
Launch date
2021-04-07
Launch site
AFETR
Launch vehicle
Mass (kg)
RCS (m²)

Purposes: comms

External: N2YO · Heavens-Above · Gunter

§ Orbital elements

Epoch: 2026-05-25T01:04:21.202176Z

Period
94.01 min
Inclination
53.1588°
Eccentricity
0.0001263
Mean motion
15.31697629 rev/d
Perigee alt
469.9 km
Apogee alt
471.6 km
Semi-major
6,848.9 km
B*
4.2292e-5
RAAN
170.4799°
Arg perigee
88.2568°
Mean anomaly
271.8578°
Rev number
28,420

§ Raw data

STARLINK-24171 48096U 21027E   26145.04468984  .00000947  00000+0  42292-4 0  99922 48096  53.1588 170.4799 0001263  88.2568 271.8578 15.31697629284208

JSON: /api/v1/satellites/48096 · /tle

For live sub-satellite position, see the globe view (requires WebGL).

§ Visibility from observer

Set your observer location to see the next 7 days of passes ≥ 10°. The values pass through the URL so the page stays shareable.

No JS? Fill the form by hand. The geolocation button needs JavaScript.